#timestamp,LO_Frequency,Hit,StdDev 
1529020815.6,286047001.2,N
1529020835.4,286046998.7,N
1529020855.3,286047000.4,N
1529020875.1,286046999.8,N
1529020895.8,286047000.0,N
1529020915.7,286047000.8,N
1529020935.5,286047001.0,N
1529020955.4,286047000.2,N
1529020975.2,286046998.6,N
1529020995.0,286047000.8,N
1529020995.9,286047000.8,N
1529021015.8,286047000.7,N
1529021035.6,286046998.7,N
1529021055.4,286046999.7,N
1529021075.3,286047002.6,N
1529021095.1,286047000.9,N
1529021115.9,286047000.1,N
1529021135.7,286046998.8,N
1529021155.5,286046999.3,N
1529021175.4,286046998.9,N
1529021195.2,286046996.5,N
1529021215.0,286046999.5,N
1529021215.9,286046999.5,N
1529021265.8,286046997.5,E
1529021275.7,286046996.5,N
1529021295.6,286046997.1,P
1529021315.4,286046997.0,P
1529021335.2,286046996.8,Y
1529021355.1,286047001.8,P
1529021356.0,286047001.8,N
1529021375.8,286047002.1,N
1529021395.7,286047004.4,N
1529021415.5,286047005.9,N
1529021435.3,286047003.3,N
1529021455.2,286047003.4,N
1529021475.0,286047002.9,N
1529021475.9,286047002.9,N
1529021495.8,286047003.8,N
1529021515.6,286047003.5,N
1529021535.5,286047001.8,N
1529021555.3,286047001.9,N
1529021575.1,286047001.6,N
1529021595.9,286047003.6,N
1529021615.7,286047003.2,N
1529021635.5,286047001.7,N
1529021655.4,286047001.3,N
1529021675.2,286047004.3,N
1529021695.0,286047003.7,N
1529021695.9,286047003.7,N
1529021715.8,286047005.9,Y
1529021735.6,286047002.4,P
1529021755.5,286047000.2,N
1529021775.3,286047002.4,N
1529021795.1,286047002.0,N
1529021815.9,286047004.0,Y
1529021835.7,286047000.1,P
1529021855.6,286047004.3,P
1529021875.4,286046999.9,N
1529021895.2,286046998.2,N
1529021915.1,286046999.4,N
1529021916.0,286046999.4,N
1529021935.8,286046996.5,N
1529021955.6,286046997.6,N
1529021975.5,286046999.6,N
1529021995.3,286046998.4,N
1529022015.2,286046997.1,N
1529022035.9,286046996.5,N
1529022055.7,286046999.6,N
1529022075.6,286047000.5,N
1529022095.4,286047001.2,N
1529022115.2,286047001.2,N
1529022135.1,286046998.9,N
1529022136.0,286046998.9,N
1529022155.8,286046998.6,N
1529022175.7,286046996.5,N
1529022195.5,286046998.5,N
1529022215.3,286047000.8,N
1529022235.2,286047000.5,N
1529022255.0,286046998.9,N
1529022255.9,286046998.9,N
1529022275.7,286046996.7,N
1529022295.6,286046997.5,N
1529022315.4,286046998.7,N
1529022335.3,286046999.4,N
1529022355.1,286047000.7,N
1529022356.0,286047000.7,N
1529022375.8,286047000.5,N
1529022395.7,286047001.1,N
1529022415.5,286047000.7,N
1529022435.3,286047000.6,N
1529022455.2,286047000.5,N
1529022475.0,286046998.2,N
1529022475.9,286046998.2,N
1529022495.8,286046997.2,N
1529022515.6,286046997.0,N
1529022535.4,286046998.7,N
1529022555.3,286046998.1,N
1529022575.1,286046994.9,Y
1529022595.9,286046998.2,P
1529022615.7,286046997.3,P
1529022635.5,286047000.4,N
1529022655.4,286046998.6,N
1529022675.2,286047000.8,N
1529022695.0,286047000.7,N
1529022695.9,286047000.7,N
1529022715.8,286047001.4,N
1529022735.6,286046999.7,N
1529022755.5,286047002.0,N
1529022775.3,286047002.7,N
1529022795.1,286046999.8,N
1529022815.9,286047000.0,N
1529022835.7,286046999.3,N
1529022855.6,286046998.4,N
1529022875.4,286046998.5,N
1529022895.2,286046996.9,N
1529022915.1,286046997.8,N
1529022916.0,286046997.8,N
1529022935.8,286046998.7,N
1529022955.7,286046999.3,N
1529022975.5,286047001.1,N
1529022995.3,286046998.2,N
1529023015.2,286046999.3,N
1529023035.0,286046998.4,N
1529023035.9,286046998.4,N
1529023055.7,286046996.5,N
1529023075.6,286046999.4,N
1529023095.4,286046998.3,N
1529023115.3,286046999.4,N
1529023135.1,286047000.0,N
1529023136.0,286047000.0,N
1529023155.8,286046999.9,N
1529023175.7,286046998.5,N
1529023195.5,286046998.1,N
1529023215.3,286046998.2,N
1529023235.2,286047001.1,N
1529023255.0,286047001.0,N
1529023255.9,286047001.0,N
1529023275.8,286046998.6,N
1529023295.6,286046998.5,N
1529023315.4,286046998.2,N
1529023335.3,286047001.0,N
1529023355.1,286047001.2,N
1529023375.9,286047001.0,N
1529023395.7,286046999.2,N
1529023415.5,286046999.1,N
1529023435.4,286046999.2,N
1529023455.2,286046999.4,N
1529023475.0,286046999.6,N
1529023475.9,286046999.6,N
1529023495.8,286046997.0,N
1529023515.6,286046996.9,N
1529023535.5,286046999.1,N
1529023555.3,286046997.5,N
1529023575.1,286046997.0,N
1529023595.9,286046997.0,N
1529023615.7,286046997.8,N
1529023635.5,286046997.6,N
1529023655.4,286046996.8,N
1529023675.2,286046997.3,N
1529023695.0,286046999.6,N
1529023696.0,286046999.6,N
1529023715.8,286046999.2,N
1529023735.6,286046998.1,N
1529023755.5,286047000.2,N
1529023775.3,286047001.2,N
1529023795.1,286046999.8,N
1529023815.9,286047000.8,N
1529023835.7,286046998.2,N
1529023855.6,286047000.7,N
1529023875.4,286046998.2,N
1529023895.2,286046998.5,N
1529023915.1,286046998.8,N
1529023916.0,286046998.8,N
1529023935.8,286046998.7,N
1529023955.6,286046998.5,N
1529023975.5,286046998.7,N
1529023995.3,286046999.3,N
1529024015.2,286046999.0,N
1529024035.9,286046997.8,N
1529024055.7,286046996.7,N
1529024075.6,286047001.1,N
1529024095.4,286046999.1,N
1529024115.3,286046999.2,N
1529024135.1,286046999.5,N
1529024136.0,286046999.5,N
1529024155.8,286046998.4,N
1529024175.7,286046998.6,N
1529024195.5,286046996.6,Y
1529024215.3,286046998.2,P
1529024235.2,286047000.9,N
1529024255.0,286047000.3,N
1529024255.9,286047000.3,N
1529024275.8,286047000.2,N
1529024325.6,286047002.0,E
1529024335.5,286047000.0,N
1529024355.4,286046996.6,P
1529024375.2,286046998.7,N
1529024395.1,286047002.6,N
1529024396.0,286047002.6,N
